Regional Weather Roundup
Issued by NWS State College, PA

Home | Current Version | Previous Version | Graphics & Text | Print | Product List | Glossary Off
Versions: 1 2 3 4 5 6 7 8 9 10 11 12 13 14 15 16 17 18 19 20 21 22 23 24 25 26 27 28 29 30 31 32 33 34 35 36 37 38 39 40 41 42 43 44 45 46 47 48 49 50

000
ASUS41 KCTP 030403
RWRCTP

REGIONAL WEATHER ROUNDUP
NATIONAL WEATHER SERVICE STATE COLLEGE PA
1200 AM EDT TUE MAY 03 2016

Note: "fair" indicates few or no clouds below 12,000 feet with no
significant weather and/or obstructions to visibility.

* = STATION THAT DOES NOT REPORT PRECIPITATION /E.G. RAIN...SNOW...ETC/
    THUNDER OR FOG.

PAZ002>004-007>009-013>016-020>023-029>032-030500-
WESTERN PENNSYLVANIA

CITY           SKY/WX    TMP DP  RH WIND       PRES   REMARKS
ERIE           PTCLDY    41  39  93 CALM      29.96S FOG
MEADVILLE      CLOUDY    40  40 100 N6        29.93F
FRANKLIN*      CLOUDY    46  41  81 N7        29.94S
NEW CASTLE     CLOUDY    47  43  86 NW5       29.93F
BEAVER COUNTY  NOT AVBL
BUTLER*        CLOUDY    50  45  81 NW3       29.93F
PITTSBURGH INT CLOUDY    52  45  77 N7        29.90F
PITTSBURGH     CLOUDY    53  48  83 NW6       29.89F
INDIANA*       CLOUDY    55  52  88 CALM      29.92F
LATROBE        CLOUDY    55  55 100 NW3       29.90F
WASHINGTON CO* CLOUDY    54  46  76 N3        29.91S
$$

PAZ004>006-010>012-017>019-024>028-033>037-041-042-045-046-049>053-030500-
CENTRAL PENNSYLVANIA

CITY           SKY/WX    TMP DP  RH WIND       PRES   REMARKS
BRADFORD       CLOUDY    45  44  97 E6        29.92S FOG
DUBOIS         CLOUDY    50  46  86 N6        29.89F
CLEARFIELD     CLOUDY    57  48  72 N3        29.90S
JOHNSTOWN      CLOUDY    54  47  77 NW5       29.90S
ALTOONA        LGT RAIN  57  53  86 NW3       29.89F
STATE COLLEGE  CLOUDY    53  52  97 N9        29.90F
WILLIAMSPORT   LGT RAIN  53  47  79 N3        29.92F
SELINSGROVE    LGT RAIN  56  49  77 NE7       29.91F
FT INDIANTOWN  CLOUDY    57  57 100 NE5       29.89F FOG
CAPITAL CITY   CLOUDY    61  57  87 NE3       29.87F FOG
HARRISBURG     CLOUDY    61  57  87 E5        29.87R
YORK           CLOUDY    61  59  93 E6        29.86S FOG
$$

PAZ038>040-043-044-047-048-054-055-060>062-067>071-030500-
EASTERN PENNSYLVANIA

CITY           SKY/WX    TMP DP  RH WIND       PRES   REMARKS
SCRANTON       LGT RAIN  51  45  79 N6        29.94F
MOUNT POCONO   LGT RAIN  48  45  89 N6        29.93F
ALLENTOWN      HVY RAIN  57  54  89 N6        29.95R FOG
QUAKERTOWN*    CLOUDY    55  55 100 NW7       29.95R
READING        RAIN      58  55  90 E6        29.89F FOG
LANCASTER      LGT RAIN  58  57  97 E10       29.87F FOG
COATESVILLE    LGT RAIN  57  57 100 NE5       29.91F
POTTSTOWN      HVY RAIN  56  56 100 NW8       29.94R FOG
BLUE BELL      CLOUDY    55  55 100 CALM      29.93S
DOYLESTOWN     RAIN      54  54 100 VRB3      29.94R FOG
WILLOW GROVE   NOT AVBL
NORTH PHILA    LGT RAIN  59  56  89 E6        29.94S FOG
PHILADELPHIA   TSTM      60  56  86 NE5       29.92S FOG
$$



USA.gov is the U.S. government's official web portal to all federal, state and local government web resources and services.